Regional Weather Roundup
Issued by NWS Mobile, AL

Home | Current Version | Previous Version | Text Only | Print | Product List | Glossary On
Versions: 1 2 3 4 5 6 7 8 9 10 11 12 13 14 15 16 17 18 19 20 21 22 23 24 25 26 27 28 29 30 31 32 33 34 35 36 37 38 39 40 41 42 43 44 45 46 47 48 49 50
000
ASUS44 KMOB 201310
RWRMOB
REGIONAL WEATHER ROUNDUP
NATIONAL WEATHER SERVICE MOBILE AL
700 AM CST SAT DEC 20 2014

NOTE: "FAIR" INDICATES FEW OR NO CLOUDS BELOW 12,000 FEET WITH NO
      SIGNIFICANT WEATHER AND/OR OBSTRUCTIONS TO VISIBILITY.

  * THESE STATIONS ARE PART OF THE UNIVERSITY OF SOUTH ALABAMA
    MESONET AND ARE NOT UNDER NWS OR FAA QUALITY CONTROL.

ALZ061>064-201400-
COASTAL ALABAMA

CITY           SKY/WX    TMP DP  RH WIND       PRES   REMARKS
MOBILE REG APT LGT RAIN  45  45 100 N10       30.15R FOG
BROOKLEY FIELD LGT RAIN  48  46  93 N9        30.15S FOG
USA CAMPUS*      N/A     46  45  93 CALM      30.14R
DOG RIVER*     NOT AVBL


CITY           SKY/WX    TMP DP  RH WIND       PRES   REMARKS
MOUNT VERNON*    N/A     45  43  93 N3        30.17R
SARALAND*      NOT AVBL
BAY MINETTE*   NOT AVBL
LOXLEY*          N/A     46  46 100 N10       30.13R
ROBERTSDALE*     N/A     46  46 100 CALM      30.13R
FAIRHOPE*        N/A     46  46 100 NE7       30.13R
ELBERTA*         N/A     48  48 100 N7        30.12R
FOLEY*           N/A     46  46 100 E5        30.12R
GRAND BAY*       N/A     46  46 100 VRB9      30.11R
DAUPHIN ISLND* NOT AVBL
BON SCOUR NWR* NOT AVBL
GULF SHORES    DRIZZLE   48  48  98 N7        30.12R

$$

ALZ051>060-201400-
INTERIOR SOUTHWEST AND SOUTH CENTRAL ALABAMA

CITY           SKY/WX    TMP DP  RH WIND       PRES   REMARKS
GREENVILLE     CLOUDY    45  43  93 NE8       30.17R
EVERGREEN      LGT RAIN  47  44  90 N5        30.17R
CASTLEBERRY*   NOT AVBL
ATMORE*          N/A     45  45 100 N8        30.17R
DIXIE*           N/A     46  46 100 N3        30.13R
ANDALUSIA/OPP  CLOUDY    51  46  83 NE6       30.16R
ANDALUSIA*       N/A     46  46 100 N8        30.15R
FLORALA APT    LGT RAIN  48  46  93 E3        30.16R FOG
FLORALA*         N/A     46  46 100 E5        30.12R

$$

FLZ001>006-201400-
WESTERN FLORIDA PANHANDLE

CITY           SKY/WX    TMP DP  RH WIND       PRES   REMARKS
PENSACOLA      LGT RAIN  46  46 100 N7        30.12R FOG
NAS PENSACOLA  LGT RAIN  50  49  96 N6        30.12R FOG
MILTON         LGT RAIN  48  48 100 N7        30.13R
WHTNG S FIELD  LGT RAIN  50  47  89 N10       30.13R


CITY           SKY/WX    TMP DP  RH WIND       PRES   REMARKS
WALNUT HILL*   NOT AVBL
JAY*             N/A     46  45  93 N5        30.15R
DUKE FIELD     CLOUDY    49  46  91 E7        30.12F
CRESTVIEW      LGT RAIN  48  47  96 E7        30.14R
VALPARAISO     LGT RAIN  49  47  93 NE14      30.11F
DESTIN         CLOUDY    50  48  93 NE12G20   30.11S

$$

MSZ076-079-201400-
INTERIOR SOUTHEAST MISSISSIPPI

CITY           SKY/WX    TMP DP  RH WIND       PRES   REMARKS
LEAKESVILLE*   NOT AVBL
AGRICOLA*      NOT AVBL

$$

MARINE OBSERVATIONS

STATION/POSITION TIME  TEMP    WIND        PRES    WAVE
                       AIR SEA DIR/SP/G            HT/PER
                 (UTC) (F)     (DEG/KT/KT) (MB)    (FT/S)
PASCAGOULA       1300   48      10/ 14/ 18 1019.6R
PETIT BOIS ISLND 1300   50      30/ 20/ 23 1019.8R
GRAND BAY        1200   47      20/ 11     1020.0S
KATRINA CUT      1200   49      30/ 20     1020.0R
CEDAR POINT      1200   48      20/ 14     1019.0R
E DAUPHIN ISLAND 1300   49      10/ 22/ 23 1019.9R
MIDDLE BAY LIGHT 1200   49      10/ 24     1019.0R
USCG MOBILE BAY  1300   47 60   20/ 10/ 14 1019.5R
STATE DOCKS      1300   47 57              1020.3R
MEAHER PARK      1200   47      10/  7     1020.6R
WEEKS BAY        1200   48                   N/A
FORT MORGAN      1300   49      40/ 20/ 22 1019.0R
12 S ORANGE BCH  1300   55 65   40/ 23/ 27 1018.0R   4/ 4
PENSACOLA BAY    1300   51 58   30/  6/ 10 1020.1R
64 S DAUPHIN ISL 1300   70 75  110/ 19/ 21 1015.5R   5/ 6
67 S FORT MORGAN 1200   69     130/ 17     1015.9R

$$

SELECTED LOCATIONS ACROSS THE REGION

CITY           SKY/WX    TMP DP  RH WIND       PRES   REMARKS
NEW ORLEANS    CLOUDY    50  47  89 N15       30.11R
GULFPORT       CLOUDY    47  45  93 N10G21    30.12S
PASCAGOULA AP  LGT RAIN  47  45  93 N13       30.13R
PASCAGOULA*      N/A     46  45  93 NE9       30.12R
HATTIESBURG    CLOUDY    46  44  93 N6        30.18R
LAUREL         CLOUDY    45  41  87 N8        30.18R
MERIDIAN       CLOUDY    42  39  89 N10       30.21R
JACKSON        CLOUDY    43  41  93 NE6       30.20R
MONTGOMERY     CLOUDY    46  43  87 NE3       30.20R FOG
TROY           CLOUDY    47  44  90 N6        30.18R
KINSTON*       NOT AVBL
GENEVA*          N/A     48  46  93 E6        30.17F
ASHFORD*         N/A     46  46 100 N8        30.15R
DOTHAN         CLOUDY    47  46  97 E8        30.19R
PANAMA CITY    CLOUDY    49  46  90 N10       30.12R

$$



USA.gov is the U.S. government's official web portal to all federal, state and local government web resources and services.